EW3803 Weather Reports


time (UTC)temp
C
wind
direction
speed
KPH
gust
KPH
rain 1hr
cm
rain 24hr
cm
rain mn
cm
humidity
%
barometer
mb
20260901081502 19 252 12.9 19.3 0.00 0.00 0.00 82 1019.5
20260901080012 18 269 11.3 20.9 0.00 0.00 0.00 83 1019.5
20260901074516 18 256 11.3 24.1 0.00 0.00 0.00 84 1019.5
20260901073021 18 270 14.5 20.9 0.00 0.00 0.00 85 1019.3
20260901071529 18 227 11.3 19.3 0.00 0.00 0.00 87 1019.5
20260901070010 17 259 9.7 17.7 0.00 0.00 0.00 88 1019.4
20260901064512 17 247 11.3 16.1 0.00 0.00 0.00 88 1019.3
20260901063016 17 250 12.9 19.3 0.00 0.00 0.00 88 1019.2
20260901061526 17 234 11.3 19.3 0.00 0.00 0.00 88 1019.2
20260901060030 16 244 9.7 16.1 0.00 0.00 0.00 89 1019.1
20260901054511 16 252 9.7 16.1 0.00 0.00 0.00 90 1019.0
20260901053016 16 241 6.4 8.0 0.00 0.00 0.00 90 1019.0
20260901051520 16 266 3.2 4.8 0.00 0.00 0.00 89 1019.1
20260901050029 16 273 3.2 9.7 0.00 0.00 0.00 89 1019.1
20260901044511 16 282 4.8 6.4 0.00 0.00 0.00 89 1019.0
20260901043020 15 290 3.2 6.4 0.00 0.00 0.00 88 1018.8
20260901041523 16 274 6.4 11.3 0.00 0.00 0.00 88 1018.9
20260901040025 16 284 3.2 8.0 0.00 0.00 0.00 87 1019.1
20260901034540 16 300 4.8 8.0 0.00 0.00 0.00 89 1018.9
20260901033014 16 296 8.0 12.9 0.00 0.00 0.00 89 1019.1
20260901031529 16 290 6.4 12.9 0.00 0.00 0.00 89 1019.0
20260901030026 16 300 6.4 9.7 0.00 0.00 0.00 89 1019.1
20260901024531 16 296 8.0 12.9 0.00 0.00 0.00 89 1019.1
20260901023032 16 299 6.4 9.7 0.00 0.00 0.00 89 1019.2
20260901021518 16 269 6.4 12.9 0.00 0.00 0.00 88 1019.3
20260901020030 16 269 9.7 12.9 0.00 0.00 0.00 88 1019.3
20260901014530 16 267 8.0 12.9 0.00 0.00 0.00 87 1019.4
20260901013039 16 288 9.7 12.9 0.00 0.00 0.00 87 1019.5
20260901011537 16 257 9.7 14.5 0.00 0.00 0.00 86 1019.6
20260901010024 17 265 11.3 17.7 0.00 0.00 0.00 85 1019.7
20260901004528 17 255 12.9 19.3 0.00 0.00 0.00 84 1019.7
20260901003030 17 257 11.3 17.7 0.00 0.00 0.00 83 1020.0
20260901001548 17 259 11.3 22.5 0.00 0.00 0.00 83 1020.0
20260901000019 17 263 12.9 19.3 0.00 0.00 0.00 83 1020.0
20260831234525 17 277 12.9 20.9 0.00 0.00 0.00 83 1020.0
20260831233027 17 260 14.5 20.9 0.00 0.00 0.00 83 1020.1
20260831231530 18 287 14.5 29.0 0.00 0.00 0.00 82 1020.1
20260831230032 18 264 16.1 22.5 0.00 0.00 0.00 82 1020.0
20260831224524 18 275 14.5 25.7 0.00 0.00 0.00 80 1020.1
20260831223027 18 284 17.7 29.0 0.00 0.00 0.00 79 1020.1
20260831221531 18 258 22.5 30.6 0.00 0.00 0.00 79 1020.0
20260831220032 18 248 16.1 24.1 0.00 0.00 0.00 86 1019.9
20260831214535 18 246 17.7 29.0 0.00 0.00 0.00 86 1019.8
20260831213025 18 263 17.7 30.6 0.00 0.00 0.00 85 1019.8
20260831211528 18 237 19.3 29.0 0.00 0.00 0.00 85 1019.8
20260831210032 18 239 20.9 32.2 0.00 0.00 0.00 85 1019.5
20260831204533 18 239 16.1 29.0 0.00 0.00 0.00 85 1019.4
20260831203030 19 221 17.7 29.0 0.00 0.00 0.00 84 1019.4
20260831201526 19 250 16.1 32.2 0.00 0.00 0.00 83 1019.2
20260831200007 19 227 14.5 29.0 0.00 0.00 0.00 82 1019.0
20260831194508 19 225 16.1 27.4 0.00 0.00 0.00 82 1018.9
20260831193011 19 234 16.1 29.0 0.00 0.00 0.00 81 1018.7
20260831191528 20 223 16.1 30.6 0.00 0.00 0.00 80 1018.8
20260831190003 20 229 14.5 29.0 0.00 0.00 0.00 80 1018.6
20260831184506 20 221 12.9 29.0 0.00 0.00 0.00 78 1018.6
20260831183011 21 217 17.7 32.2 0.00 0.00 0.00 77 1018.5
20260831181508 21 201 14.5 25.7 0.00 0.00 0.00 76 1018.4
20260831180013 21 223 16.1 29.0 0.00 0.00 0.00 76 1018.4
20260831174506 21 213 12.9 29.0 0.00 0.00 0.00 75 1018.4
20260831173015 21 222 17.7 27.4 0.00 0.00 0.00 75 1018.4
20260831171515 22 240 17.7 37.0 0.00 0.00 0.00 74 1018.4
20260831170016 22 214 17.7 32.2 0.00 0.00 0.00 73 1018.4
20260831164509 22 207 17.7 32.2 0.00 0.00 0.00 73 1018.5
20260831163010 22 237 19.3 30.6 0.00 0.00 0.00 74 1018.5
20260831161512 22 227 17.7 33.8 0.00 0.00 0.00 74 1018.7
20260831160015 23 178 14.5 22.5 0.00 0.00 0.00 71 1018.8
20260831154538 22 229 9.7 27.4 0.00 0.00 0.00 74 1018.9
20260831153012 22 211 17.7 33.8 0.00 0.00 0.00 74 1018.9
20260831151514 22 209 17.7 33.8 0.00 0.00 0.00 75 1019.0
20260831150015 22 229 20.9 33.8 0.00 0.00 0.00 75 1019.0
20260831144516 22 221 11.3 27.4 0.00 0.00 0.00 1019.1
20260831143014 22 184 12.9 27.4 0.00 0.00 0.00 76 1019.2
20260831141511 23 225 14.5 32.2 0.00 0.00 0.00 75 1019.3
20260831140019 22 235 12.9 24.1 0.00 0.00 0.00 1019.3
20260831134516 22 200 16.1 33.8 0.00 0.00 0.00 77 1019.4
20260831133025 22 216 16.1 27.4 0.00 0.00 0.00 77 1019.6
20260831131519 22 219 14.5 30.6 0.00 0.00 0.00 76 1019.7
20260831130018 21 217 16.1 35.4 0.00 0.00 0.00 77 1019.7
20260831124536 22 212 17.7 25.7 0.00 0.00 0.00 75 1019.8
20260831123017 22 215 16.1 24.1 0.00 0.00 0.00 1020.0
20260831121518 22 183 12.9 22.5 0.00 0.00 0.00 1019.8
20260831120011 22 209 9.7 24.1 0.00 0.00 0.00 1019.8
20260831114534 22 250 14.5 22.5 0.00 0.00 0.00 1019.8
20260831113018 22 220 14.5 24.1 0.00 0.00 0.00 70 1019.9
20260831111522 22 253 16.1 29.0 0.00 0.00 0.00 71 1020.0
20260831110023 22 225 16.1 30.6 0.00 0.00 0.00 71 1020.1
20260831104528 21 270 20.9 35.4 0.00 0.00 0.00 71 1020.1
20260831103022 21 266 17.7 32.2 0.00 0.00 0.00 71 1020.1
20260831101523 21 219 19.3 37.0 0.00 0.00 0.00 71 1020.2
20260831100029 20 243 22.5 30.6 0.00 0.00 0.00 73 1020.3
20260831094526 20 253 16.1 30.6 0.00 0.00 0.00 76 1020.3
20260831093032 20 242 19.3 30.6 0.00 0.00 0.00 77 1020.3
20260831091523 20 240 19.3 29.0 0.00 0.00 0.00 78 1020.1
20260831090023 20 236 17.7 30.6 0.00 0.00 0.00 79 1020.3
20260831084531 19 241 17.7 27.4 0.00 0.00 0.00 81 1020.1
20260831083035 18 270 20.9 30.6 0.00 0.00 0.00 82 1020.1